Printer-friendly version

IAU Minor Planet Center

Minor Planet Center

MPEC 2007-P51 : 2007 PU11

The following Minor Planet Electronic Circular may be linked-to from your own Web pages, but must not otherwise be redistributed electronically.


Read MPEC 2007-P50 Read MPEC 2007-P52


M.P.E.C. 2007-P51                                Issued 2007 Aug. 14, 11:01 UT

     The Minor Planet Electronic Circulars contain information on unusual
         minor planets and routine data on comets.  They are published
   on behalf of Commission 20 of the International Astronomical Union by the
          Minor Planet Center, Smithsonian Astrophysical Observatory,
                          Cambridge, MA 02138, U.S.A.

             Prepared using the Tamkin Foundation Computer Network

                              MPC@CFA.HARVARD.EDU
          URL http://www.cfa.harvard.edu/iau/mpc.html  ISSN 1523-6714

                                   2007 PU11

Observations:
     K07P11U  C2007 06 26.40074 23 02 16.04 +13 05 10.4          19.2 V EP051703
     K07P11U  C2007 06 26.40641 23 02 16.65 +13 05 15.5          19.8 V EP051703
     K07P11U  C2007 06 26.41207 23 02 17.12 +13 05 21.7          19.4 V EP051703
     K07P11U  C2007 06 26.41774 23 02 17.55 +13 05 28.2          20.5 V EP051703
     K07P11U* C2007 08 13.32247 00 18 43.75 +25 02 24.2          17.8   EP051704
     K07P11U  C2007 08 13.33430 00 18 44.92 +25 02 32.7          17.8   EP051704
     K07P11U  C2007 08 13.34636 00 18 46.13 +25 02 42.1          18.3   EP051704
     K07P11U  C2007 08 13.35806 00 18 47.30 +25 02 50.9          17.9   EP051704
     K07P11U  C2007 08 13.36955 00 18 48.38 +25 02 59.4          18.1   EP051704
     K07P11U  C2007 08 13.86856 00 19 40.59 +25 09 05.8          17.8 V EP051B33
     K07P11U  C2007 08 13.87521 00 19 41.25 +25 09 10.8          17.8 V EP051B33
     K07P11U  C2007 08 13.88492 00 19 42.21 +25 09 18.0          17.7 V EP051B33
     K07P11U  C2007 08 13.89390 00 19 43.18 +25 09 25.1          18.0 V EP051B33
     K07P11U  C2007 08 13.90478 00 19 44.26 +25 09 32.6          18.3 V EP051595
     K07P11U  C2007 08 13.90960 00 19 44.72 +25 09 36.7          18.8 V EP051595
     K07P11U  C2007 08 13.94295 00 19 48.11 +25 10 01.1          17.8 R EP051046
     K07P11U  C2007 08 13.94418 00 19 48.21 +25 10 02.1                 EP051046
     K07P11U  C2007 08 13.94498 00 19 48.30 +25 10 02.5                 EP051046
     K07P11U  C2007 08 13.94572 00 19 48.36 +25 10 02.8                 EP051046
     K07P11U  C2007 08 13.94613 00 19 48.54 +25 10 04.2          17.9 R EP051620
     K07P11U  C2007 08 13.94662 00 19 48.47 +25 10 04.2                 EP051046
     K07P11U  C2007 08 13.94741 00 19 48.54 +25 10 04.6                 EP051046
     K07P11U  C2007 08 13.94897 00 19 48.71 +25 10 05.7                 EP051046
     K07P11U  C2007 08 13.95536 00 19 49.46 +25 10 11.1          18.6 R EP051620
     K07P11U  C2007 08 13.96322 00 19 50.30 +25 10 16.5          18.5 R EP051620
     K07P11U  C2007 08 14.01855 00 19 55.73 +25 10 59.3          17.2 R EP051470
     K07P11U  C2007 08 14.02162 00 19 56.04 +25 11 01.5          17.6 R EP051470
     K07P11U  C2007 08 14.02732 00 19 56.63 +25 11 05.8          18.0 R EP051470
     K07P11U *C2007 08 14.26602 00 20 21.82 +25 14 01.3          17.7 R EP051H06

Observer details:
046 Klet.  Observers M. Tichy, M. Honkova, J. Ticha.  Measurer M. Tichy.
    0.57-m f/5.2 reflector + CCD.
470 Ceccano.  Observer G. Masi.  0.28-m f/5 reflector + CCD.
595 Farra d'Isonzo.  Observers G. Lombardi, E. Pettarin, F. Piani,
    L. Bittesini.  Measurer G. Lombardi.  0.40-m f/4.5 reflector + CCD.
620 Observatorio Astronomico de Mallorca.  Observers F. Novoselnik,
    D. Bektesevic, A. Galant, T. Pelko, A. Gruic, S. Cikota.  0.30-m f/9
    Schmidt-Cassegrain + CCD.
703 Catalina Sky Survey.  Observer A. R. Gibbs.  Measurers E. C. Beshore,
    A. Boattini, G. J. Garradd, A. R. Gibbs, A. D. Grauer, R. E. Hill,
    R. A. Kowalski, S. M. Larson, R. H. McNaught.  0.68-m Schmidt + CCD.
704 Lincoln Laboratory ETS, New Mexico.  Observers M. Bezpalko, D. Torres,
    R. Kracke, G. Spitz, J. Kistler.  Measurers J. Stuart, S. Scruggs.  1.0-m
    f/2.15 reflector + CCD.
B33 Libbiano Observatory, Peccioli.  Observers P. Bacci, F. Biasci, E. R,
    P. Piludu.  Measurer P. Bacci.  0.5-m f/10 Ritchey-Chretien + CCD.
H06 RAS Observatory, Mayhill.  Observer R. Ligustri.  0.25-m f/3.4 reflector
    + CCD.

Orbital elements:
2007 PU11                                                Earth MOID = 0.2797 AU
Epoch 2007 Oct. 27.0 TT = JDT 2454400.5                 MPC
M 358.41160              (2000.0)            P               Q
n   0.20414374     Peri.  194.59905     +0.73807364     -0.66526811
a   2.8565731      Node   208.12433     +0.64051360     +0.74327498
e   0.5563148      Incl.   13.81255     +0.21210759     +0.07043186
P   4.83           H   16.4           G   0.15           U   8
Residuals in seconds of arc
070626 703  0.5-  0.6-    070813 B33  0.3+  0.4+    070813 046  0.3+  0.3+
070626 703  1.0+  0.8-    070813 B33  0.2-  0.2+    070813 046  0.1+  0.1+
070626 703  0.4+  0.1+    070813 B33  0.5+  0.5+    070813 046  0.3+  0.1+
070626 703  0.7-  1.3+    070813 595  0.5+  0.1-    070813 620  0.4-  0.4-
070813 704  0.3+  0.3+    070813 595  0.1+  0.4+    070813 620  0.2+  0.9-
070813 704  0.2+  0.2-    070813 046  0.5+  0.0     070814 470  0.2-  0.2+
070813 704  0.3+  0.0     070813 046  0.1+  0.1+    070814 470  0.2-  0.1+
070813 704  0.4+  0.0     070813 046  0.2+  0.1-    070814 470  0.1+  0.2+
070813 704  0.4-  0.2-    070813 046  0.0   0.4-    070814 H06  0.3+  0.0
070813 B33  0.7+  0.4+    070813 620  0.1-  0.3-

Ephemeris:
2007 PU11                a,e,i = 2.86, 0.56, 14                  q = 1.2674
Date    TT    R. A. (2000) Decl.     Delta      r     Elong.  Phase     V
2007 08 08    00 09.66   +23 53.2    0.815    1.590   120.5    33.3    18.4
2007 08 18    00 26.89   +25 57.9    0.707    1.531   124.8    32.9    18.0
2007 08 28    00 45.22   +27 33.2    0.610    1.474   129.3    32.0    17.5
2007 09 07    01 05.02   +28 23.3    0.523    1.423   134.1    30.6    17.1
2007 09 17    01 26.51   +28 05.5    0.447    1.377   139.6    28.3    16.6
2007 09 27    01 49.79   +26 12.2    0.384    1.337   145.9    24.9    16.1
2007 10 07    02 14.36   +22 16.4    0.334    1.306   153.2    20.2    15.6
2007 10 17    02 38.92   +16 07.9    0.300    1.283   160.8    14.8    15.2
2007 10 27    03 01.94   +08 23.2    0.284    1.271   165.0    11.7    14.9
2007 11 06    03 21.91   +00 28.3    0.287    1.268   161.9    14.1    15.0
2007 11 16    03 38.25   -06 03.1    0.308    1.275   155.1    19.1    15.3
2007 11 26    03 51.54   -10 21.6    0.343    1.292   148.7    23.4    15.7
2007 12 06    04 02.78   -12 28.2    0.390    1.319   143.4    26.4    16.2
2007 12 16    04 13.15   -12 46.1    0.447    1.354   139.1    28.4    16.6
2007 12 26    04 23.71   -11 46.0    0.513    1.396   135.4    29.7    17.0
2008 01 05    04 34.98   -09 55.4    0.590    1.445   131.7    30.5    17.4
2008 01 15    04 47.32   -07 36.1    0.678    1.499   127.9    31.2    17.8
2008 01 25    05 00.85   -05 05.5    0.776    1.557   123.9    31.7    18.2
2008 02 04    05 15.46   -02 35.8    0.885    1.618   119.6    32.0    18.5
2008 02 14    05 31.06   -00 14.8    1.005    1.682   115.1    32.1    18.9
2008 02 24    05 47.49   +01 52.0    1.136    1.747   110.4    32.1    19.2
2008 03 05    06 04.54   +03 41.9    1.276    1.814   105.5    31.8    19.6
2008 03 15    06 22.09   +05 13.7    1.426    1.882   100.6    31.3    19.9
2008 03 25    06 39.95   +06 27.2    1.582    1.950    95.5    30.6    20.2
2008 04 04    06 57.97   +07 22.9    1.745    2.018    90.4    29.7    20.4
2008 04 14    07 16.07   +08 01.7    1.913    2.086    85.3    28.6    20.7
2008 04 24    07 34.11   +08 24.9    2.085    2.153    80.1    27.4    20.9
2008 05 04    07 52.00   +08 33.8    2.258    2.221    74.9    26.0    21.1
2008 05 14    08 09.71   +08 29.7    2.432    2.287    69.7    24.5    21.3
2008 05 24    08 27.15   +08 13.9    2.604    2.353    64.5    22.9    21.4

Timothy B. Spahr             (C) Copyright 2007 MPC           M.P.E.C. 2007-P51

Read MPEC 2007-P50 Read MPEC 2007-P52


Our Web policy. Index to the CBAT/MPC/ICQ pages.


Valid HTML 4.01!